Weather History for Cleveland, OH

Change the Weather History Date:

Monday, March 17, 2014

  Actual Average Record
Temperature  
Mean Temperature 24 °F 39 °F  
Max Temperature 33 °F 47 °F 77 °F (2012)
Min Temperature 14 °F 30 °F 0 °F (1900)
Degree Days  
Heating Degree Days 41 26  
Month to date heating degree days 605 492  
Since 1 July heating degree days 5286 4709  
Cooling Degree Days 0 0  
Month to date cooling degree days 0 0  
Year to date cooling degree days 0 0  
Moisture  
Dew Point 11 °F    
Average Humidity 57    
Maximum Humidity 75    
Minimum Humidity 38    
Precipitation  
Precipitation 0.00 in 0.10 in 0.54 in (1950)
Month to date precipitation 0.85 1.49  
Year to date precipitation 5.88 6.55  
Snow  
Snow 0.00 in 0.40 in - ()
Month to date snowfall 7.3 7.8  
Since 1 July snowfall 77.0 60.0  
Snow Depth 0.00 in    
Sea Level Pressure  
Sea Level Pressure 30.05 in    
Wind  
Wind Speed 8 mph (NE)    
Max Wind Speed 18 mph    
Max Gust Speed 24 mph    
Visibility 10 miles    
Events      
T = Trace of Precipitation, MM = Missing Value Source: NWS Daily Summary

Daily Weather History Graph

Daily Weather History Graph

Search for Another Location

Airport:

Trip Planner

Search our weather history database for the weather conditions in past years. The results will help you decide how hot, cold, wet, or windy it might be!

Date:

Astronomy

Mar. 17, 2014 Rise Set
Actual Time 7:35 AM EDT 7:36 PM EDT
Civil Twilight 7:08 AM EDT 8:03 PM EDT
Nautical Twilight 6:36 AM EDT 8:36 PM EDT
Astronomical Twilight 6:03 AM EDT 9:08 PM EDT
Moon 8:53 PM EDT (3/17) 7:49 AM EDT (3/17)
Length of Visible Light 12h 55m
Length of Day
12h 00m
Full, 99% of the Moon is Illuminated
Mar 17
Full
Mar 23
Last Quarter
Mar 30
New
Apr 7
First Quarter
Apr 15
Full

Hourly Weather History & Observations

Time (EDT) Temp. Windchill Dew Point Humidity Pressure Visibility Wind Dir Wind Speed Gust Speed Precip Events Conditions
12:51 AM 17.1 °F 4.3 °F 3.9 °F 56% 30.19 in 10.0 mi NE 11.5 mph - N/A   Mostly Cloudy
1:51 AM 16.0 °F 1.1 °F 7.0 °F 68% 30.16 in 10.0 mi NE 15.0 mph - N/A   Mostly Cloudy
2:51 AM 16.0 °F 2.9 °F 7.0 °F 68% 30.14 in 10.0 mi NE 11.5 mph - N/A   Scattered Clouds
3:51 AM 15.1 °F 1.1 °F 5.0 °F 64% 30.12 in 10.0 mi NNE 12.7 mph - N/A   Scattered Clouds
4:51 AM 16.0 °F 1.7 °F 5.0 °F 62% 30.12 in 10.0 mi NE 13.8 mph - N/A   Scattered Clouds
5:51 AM 15.1 °F 2.5 °F 5.0 °F 64% 30.11 in 10.0 mi NE 10.4 mph - N/A   Partly Cloudy
6:51 AM 15.1 °F 3.3 °F 1.9 °F 56% 30.10 in 10.0 mi NE 9.2 mph - N/A   Partly Cloudy
7:51 AM 15.1 °F 2.5 °F 3.0 °F 59% 30.09 in 10.0 mi NE 10.4 mph - N/A   Partly Cloudy
8:51 AM 17.1 °F 5.0 °F 1.9 °F 52% 30.09 in 10.0 mi NE 10.4 mph - N/A   Scattered Clouds
9:51 AM 21.0 °F 12.4 °F 3.9 °F 48% 30.08 in 10.0 mi ENE 6.9 mph - N/A   Scattered Clouds
10:51 AM 25.0 °F 16.3 °F 5.0 °F 43% 30.06 in 10.0 mi East 8.1 mph - N/A   Partly Cloudy
11:51 AM 30.9 °F 22.8 °F 8.1 °F 38% 30.05 in 10.0 mi East 9.2 mph - N/A   Partly Cloudy
12:51 PM 33.1 °F 25.5 °F 10.9 °F 40% 30.03 in 10.0 mi NNE 9.2 mph - N/A   Partly Cloudy
1:51 PM 30.9 °F 21.7 °F 15.1 °F 52% 30.01 in 10.0 mi NNE 11.5 mph - N/A   Partly Cloudy
2:51 PM 30.9 °F 21.7 °F 16.0 °F 54% 29.97 in 10.0 mi NNE 11.5 mph - N/A   Partly Cloudy
3:51 PM 32.0 °F 23.6 °F 16.0 °F 52% 29.97 in 10.0 mi North 10.4 mph - N/A   Scattered Clouds
4:51 PM 32.0 °F 23.6 °F 18.0 °F 56% 29.97 in 10.0 mi North 10.4 mph - N/A   Scattered Clouds
5:51 PM 32.0 °F 23.6 °F 19.0 °F 59% 29.96 in 10.0 mi NE 10.4 mph - N/A   Partly Cloudy
6:51 PM 30.0 °F 21.1 °F 19.9 °F 66% 29.97 in 10.0 mi NNE 10.4 mph - N/A   Partly Cloudy
7:51 PM 27.0 °F 19.5 °F 19.0 °F 72% 29.97 in 10.0 mi North 6.9 mph - N/A   Partly Cloudy
8:51 PM 27.0 °F 21.6 °F 19.0 °F 72% 29.96 in 10.0 mi North 4.6 mph - N/A   Partly Cloudy
9:51 PM 28.0 °F - 19.0 °F 69% 29.98 in 10.0 mi Calm Calm - N/A   Partly Cloudy
10:51 PM 27.0 °F - 19.0 °F 72% 30.00 in 10.0 mi Calm Calm - N/A   Partly Cloudy
11:51 PM 27.0 °F - 19.0 °F 72% 30.00 in 10.0 mi Calm Calm - N/A   Partly Cloudy